STARLINK-1933, 46791

Orbit data source: Space-Track

STARLINK-1933, 46791 is a payload satellite owned by SpaceX/Seattle (US) in LEO that was launched on Sat, 24 Oct 2020 UTC via an FALCON 9 launch vehicle from the Air Force Eastern Test Range (AFETR). Payloads include a variety of satellites, spacecraft, and rockets equipped with specific instruments for various scientific and technological missions. These include communications satellites like Starlink; space stations such as the ISS; scientific satellites like the Hubble; Earth observation satellites from companies like Planet Labs, Umbra, and HawkEye 360; GPS; miniature CubeSats for education and research; and military/defense satellites.

Loading next visibility...
STARLINK-1933 details
Identifier
46791, 2020-074BE
Orbit
LEO
Last TLE update6 hours ago
Origin
Flag of USSpaceX/Seattle (US)
ManufacturerSpaceX/Seattle
MissionPartially operational Commercial Communications
Bus & MotorSTARLINK, Unknown motor
Mass260 kg wet, ~248 kg dry
Launch date (UTC)
2020-10-24 (4 years ago)
Launch vehicle
FALCON 9
Launch site
Air Force Eastern Test Range (AFETR)
Object type
Payload
Rocket body
Debris
Shape & HBRBox + 1 Pan, 8.86 m
Radar Cross Section13.562 m², Large (>1 m²)

Expand to show TLE details & history

TLE from 6 hours ago
0 STARLINK-1933
1 46791U 20074BE  24339.91668981  .00145175  00000-0  15481-2 0  9993
2 46791  53.0546 213.5177 0000395 193.4961 100.2814 15.63000923  5783
Epoch: 2024-12-04T22:00Z
Definitive object data (Epoch: 2024-12-04T22:00:01.999Z)
Latitude-47.18475°
Longitude115.48261°
Altitude395.138 km
Speed7.673 km/s
True Right ascension10h 38m 47s
True Declination-47° 00' 15"
Sunlit
Object was in daylight at TLE epoch
Visualization TLE readout
Latitude-11.69353°
Longitude159.10335°
Altitude382.158 km
Speed7.681 km/s
Apparent Right ascension13h 52m 40s
Apparent Declination-25° 21' 21"
Sunlit
Object is in daylight
Visualization observer readout
Local Sidereal Time02:18:57
Azimuth22.656° NE
Elevation-74.437°
Doppler factor1
Orbital elements
Apogee altitude379.538 km
Perigee altitude379.005 km
Semi-major axis6,757.408 km
Eccentricity0.0000395
Inclination53.0546°
RAAN213.5177°
Arg. of periapsis193.4961°
True anomaly100.28585°
Mean anomaly100.2814°
Eccentric anomaly100.28363°
Mean motion3.90727 °/min
BSTAR0.0015481
Orbital period92.14 mins
Loading maneuver chart data...

STARLINK-1933 Visibility forecast

Observer location: undefined°, undefined

Span
Click to sort rows by Start time (UTC) header in descending order
Start Az.
Max El. time (UTC)
Max El. Az.
Max El.
End time (UTC)
End Az.
5 mins2024-12-05 18:24:33.555Z224.399° SW2024-12-05 18:27:33.555Z84.657° E43.076°2024-12-05 18:29:33.555Z53.828° ENE
4 mins2024-12-06 00:52:33.555Z338.033° N2024-12-06 00:53:33.555Z28.505° NE37.747°2024-12-06 00:56:33.555Z114.034° SE
|